カタログに戻る

STARLINK-11398

運用中通信VLEO
NORAD 61882·PAYLOAD·🇺🇸 United States

打ち上げ Nov 9, 2024 から Vandenberg Space Force Base

Loading…

次のパス (今後24時間)

TLE

最新Source: CelesTrak SupGP

元期: Sep 14, 2026, 21:25 UTC

1 61882C 24204J   26257.89284722 -.00053065  00000+0 -43697-3 0  2570
2 61882  53.1565 143.5035 0001062  92.3369 205.4695 15.69743916    17

AllMySatでSTARLINK-11398をリアルタイム追跡

Download on the App Store